{"data":{"norad_id":67830,"epoch":"2026-09-19T07:57:46.479744Z","epoch_age_seconds":167406,"freshness":"FRESH","line1":"1 67830U 26033K   26262.33178796  .00015006  00000+0  55356-3 0  9998","line2":"2 67830  42.9999 253.9363 0001430 272.1189  87.9499 15.27588841 34289","mean_motion":15.27588841,"eccentricity":0.000143,"inclination_deg":42.9999,"raan_deg":253.9363,"arg_perigee_deg":272.1189,"mean_anomaly_deg":87.9499,"bstar":0.00055356,"rev_number":3428,"period_min":94.266203139932,"perigee_km":482.04147720671,"apogee_km":484.00376885889,"semimajor_km":6861.1596230328,"source":"CELESTRAK","updated_at":"2026-09-20T09:00:43.668891Z"}}